Location: Bacharowice
(49.9333°N, 19.5833°E)
Time: 23:51:40
(UTC+00:00)

SOZ - Pass Details

Date: 29 September 2021
Orbit: 306 x 16687 km, 52.0° (Epoch: 18 October)

Event Time Altitude Azimuth Distance (km) Brightness Sun altitude
Rises 21:55:04 0° 176° (S) 22,139 13.0 -42.2°
Enters shadow 22:27:04 10° 174° (S) 19,998 12.7 -42.8°
Exits shadow 23:15:21 28° 165° (SSE) 13,386 11.8 -42.0°
Maximum altitude 23:44:18 40° 130° (SE) 7,346 10.7 -40.4°
Drops below altitude 10° 00:01:31 10° 69° (ENE) 5,318 10.7 -39.2°
Sets 00:04:13 0° 61° (ENE) 5,579 11.1 -39.0°
